Location: Trois-Rivi�res
(46.3500°N, 72.5500°W)
Time: 19:46:53
(UTC-04:00)

Envisat - Visible Passes

Search period start: 20 July 2018 00:00
Search period end: 30 July 2018 00:00
Orbit: 764 x 766 km, 98.2° (Epoch: 20 July)

Date Brightness Start Highest point End Pass type
(mag) Time Alt. Az. Time Alt. Az. Time Alt. Az.
20 Jul 5.5 21:10:43 10° SW 21:14:24 20° W 21:18:07 10° NW visible
22 Jul 5.9 21:38:36 10° WSW 21:40:19 12° W 21:42:01 10° WNW visible
23 Jul 5.3 20:59:00 10° SSW 21:03:07 25° W 21:07:17 10° NW visible
25 Jul 5.7 21:26:11 10° WSW 21:28:59 15° W 21:31:48 10° NW visible
28 Jul 5.6 21:14:13 10° SW 21:17:41 18° W 21:21:11 10° NW visible
